Regional Weather Roundup
Issued by NWS

Home | Current Version | Previous Version | Text Only | Print | Product List | Glossary Off
Versions: 1 2 3 4 5 6 7 8 9 10 11 12 13 14 15 16 17 18 19 20 21 22 23 24 25 26 27 28 29 30 31 32 33 34 35 36 37 38 39 40 41 42 43 44 45 46 47 48 49 50

000
ASUS43 KMPX 230001
RWRMN
WEATHER ROUNDUP FOR MINNESOTA
NATIONAL WEATHER SERVICE TWIN CITIES/CHANHASSEN MN
700 PM CDT SAT JUL 22 2017


NOTE: "FAIR" INDICATES FEW OR NO CLOUDS BELOW 12,000 FEET WITH NO
SIGNIFICANT WEATHER AND/OR OBSTRUCTIONS TO VISIBILITY. N/A MEANS
CURRENT SKY AND/OR WEATHER CONDITIONS ARE NOT AVAILABLE.

MNZ060>063-068>070-230100-
   Twin Cities Metro

CITY           SKY/WX    TMP DP  RH WIND       PRES   REMARKS
TWIN CITIES    FAIR      87  62  43 NW10      29.81S
6HR MIN TEMP:  86; 6HR MAX TEMP:  91;

ST PAUL        FAIR      87  64  46 NW14      29.80S
CRYSTAL        FAIR      86  60  41 NW9       29.80S
LAKEVILLE      FAIR      82  66  57 NW6       29.82S
EDEN PRAIRIE   FAIR      88  62  41 NW8       29.81S
6HR MIN TEMP:  85; 6HR MAX TEMP:  91;

SOUTH ST PAUL  FAIR      88  62  41 N10       29.80S
LAKE ELMO      FAIR      84  63  48 NW9       29.82S
$$
MNZ001>005-007-008-013>017-022>024-027-028-230100-
   Northwest Minnesota

CITY           SKY/WX    TMP DP  RH WIND       PRES   REMARKS
BEMIDJI        FAIR      75  54  48 W14       29.84F
HALLOCK        FAIR      68  63  83 NW7       29.84F
ROSEAU         FAIR      68  59  73 NW9       29.82S
WARROAD        FAIR      68  63  83 W9G16     29.82R
CROOKSTON      PTSUNNY   72  57  60 NW9       29.85S
FOSSTON        CLOUDY    70  55  60 W8        29.86S
DETROIT LAKES  FAIR      77  55  47 NW9       29.88F
MOORHEAD       FAIR      81  57  44 N9        29.86S
PARK RAPIDS    FAIR      79  52  38 NW15      29.86S
MAHNOMEN       FAIR      75  57  53 W12G18    29.85F
$$
MNZ006-009>011-018-025>026-230100-
   North Central Minnesota

CITY           SKY/WX    TMP DP  RH WIND       PRES   REMARKS
BAUDETTE       CLOUDY    70  57  63 W14G21    29.80R
FLAG ISLAND    LGT RAIN  64  61  88 CALM      29.79S
INTL FALLS     FAIR      74  56  53 W10       29.77S
6HR MIN TEMP:  74; 6HR MAX TEMP:  82;

WASKISH        PTSUNNY   73  59  60 W14G20    29.81S
BIG FORK       FAIR      77  54  44 W7        29.81S
LONGVILLE      FAIR      79  54  41 W8        29.84S
GRAND RAPIDS   FAIR      78  53  41 NW13      29.83S
CRANE LAKE     FAIR      72  66  83 CALM      29.78S
ORR            FAIR      77  50  38 W7        29.76S
COOK           FAIR      77  54  44 W13G18    29.78F
WALKER         FAIR      76  54  46 NW12      29.84S
$$
MNZ012-019>021-037-230100-
   Northeast Minnesota

CITY           SKY/WX    TMP DP  RH WIND       PRES   REMARKS
DULUTH         FAIR      63  58  83 SE7       29.81S
6HR MIN TEMP:  63; 6HR MAX TEMP:  72;

ELY            FAIR      68  63  83 CALM      29.79F
HIBBING        FAIR      77  55  46 W8        29.79S
EVELETH        FAIR      75  62  62 SW3       29.80F
DULUTH HARBOR  PTSUNNY   61  57  88 NE10      29.82S
TWO HARBORS    FAIR      64  57  77 E6        29.81R
GRAND MARAIS     N/A     57  53  86 NE3       29.82S
G MARAIS ARPRT CLOUDY    61  54  77 CALM      29.85S
$$
MNZ029>031-032-039>041-046>048-054>057-064-230100-
   West Central Minnesota

CITY           SKY/WX    TMP DP  RH WIND       PRES   REMARKS
FERGUS FALLS   FAIR      79  61  53 N5        29.85F
WHEATON        FAIR      82  57  42 N5        29.87F
MORRIS         FAIR      84  61  45 N6        29.86F
ALEXANDRIA     FAIR      80  60  50 N9        29.89F
ELBOW LAKE     FAIR      79  60  51 NW7       29.87F HAZE
WADENA         FAIR      77  57  50 NW6       29.86F
GLENWOOD       FAIR      81  59  47 NW10      29.88F
APPLETON       FAIR      86  57  37 NW5       29.85F
BENSON         FAIR      82  63  51 NE7       29.87F
ORTONVILLE     FAIR      84  59  42 NE5       29.86F
MADISON        FAIR      88  63  42 N7        29.87S
WILLMAR        FAIR      84  64  51 N9        29.88S
$$
MNZ033>034-036-042>043-049>051-058-059-230100-
   Central Minnesota

CITY           SKY/WX    TMP DP  RH WIND       PRES   REMARKS
ST CLOUD       FAIR      83  62  49 NW13      29.83S
6HR MIN TEMP:  83; 6HR MAX TEMP:  87;

SAUK CENTRE    FAIR      81  58  45 W9        29.87F
PAYNESVILLE    FAIR      83  60  45 NW10G16   29.87S
AITKIN         FAIR      79  52  38 W8        29.82S
PINE RIVER     FAIR      79  54  41 W8G16     29.88S
BRAINERD       FAIR      80  48  32 W12       29.84S
STAPLES        FAIR      79  52  38 NW9       29.86S
LONG PRAIRIE   FAIR      79  54  41 W10       29.88S
LITTLE FALLS   FAIR      81  54  39 NW8       29.86R
LITCHFIELD     FAIR      86  63  45 NW12      29.85S
BUFFALO        FAIR      85  60  41 W13       29.84S
MAPLE LAKE     FAIR      85  66  52 NW7       29.85S
HUTCHINSON     FAIR      85  65  52 W8        29.86S
$$
MNZ037-044-045-052-053-230100-
   East Central Minnesota

CITY           SKY/WX    TMP DP  RH WIND       PRES   REMARKS
PRINCETON      FAIR      84  63  48 W10       29.83S
MORA           FAIR      79  61  53 NW8       29.83S
CAMBRIDGE      FAIR      84  66  54 W6        29.80S
RUSH CITY      FAIR      81  66  60 CALM      29.81S
MOOSE LAKE     FAIR      81  61  50 W7        29.79S
HINCKLEY       FAIR      82  64  54 W8        29.81S
CLOQUET        PTSUNNY   70  61  73 E5        29.81S
MCGREGOR       FAIR      79  52  38 NW9       29.82S
$$
MNZ071>073-080-081-089-090-097-098-230100-
   Southwest Minnesota

CITY           SKY/WX    TMP DP  RH WIND       PRES   REMARKS
MONTEVIDEO     FAIR      84  64  51 N8        29.87S
GRANITE FALLS  FAIR      87  67  50 N8        29.87F
CANBY          FAIR      89  53  29 CALM      29.89S
MARSHALL       FAIR      85  66  53 NW9       29.87F
REDWOOD FALLS  FAIR      86  68  54 N7        29.85F
OLIVIA         FAIR      82  64  54 N8        29.86S
PIPESTONE      FAIR      84  63  48 NW6       29.92F
WINDOM         FAIR      84  68  58 W5        29.89S
WORTHINGTON    FAIR      83  67  58 NW8       29.91F
JACKSON        FAIR      81  68  65 CALM      29.90F
SLAYTON        FAIR      83  66  55 W8        29.92F
$$
MNZ065>067-074>077-082>085-091>093-230100-
   South Central Minnesota

CITY           SKY/WX    TMP DP  RH WIND       PRES   REMARKS
MANKATO        FAIR      83  71  67 NW9       29.85S
NEW ULM        FAIR      84  66  54 NW6       29.85F
ST JAMES       FAIR      82  72  69 W5        29.87S
FAIRMONT       FAIR      83  70  64 NW9       29.87S
GLENCOE        FAIR      85  70  61 NW8       29.83F
FARIBAULT      FAIR      84  68  58 NW7       29.84S
OWATONNA       FAIR      82  73  74 NW6       29.84S
WASECA         FAIR      82  70  65 NW8       29.86S
ALBERT LEA     FAIR      82  73  74 W5        29.85S
$$
MNZ078>079-086>088-094>096-230100-
   Southeast Minnesota

CITY           SKY/WX    TMP DP  RH WIND       PRES   REMARKS
ROCHESTER      FAIR      80  72  76 W6        29.84S
6HR MIN TEMP:  75; 6HR MAX TEMP:  85;

RED WING       FAIR      82  68  61 CALM      29.79S
STANTON        FAIR      83  67  58 W6        29.81R
DODGE CENTER   LGT RAIN  82  70  65 NW7       29.85S
WINONA         FAIR      82  70  65 SW5       29.79F
AUSTIN         FAIR      81  70  69 W6        29.85S
PRESTON        FAIR      81  71  70 W6        29.85S
$$
ABBREVIATIONS USED IN REMARKS
   TC - TEMPERATURES IN CELSIUS
  WCI - WIND CHILL INDEX
   HX - HEAT INDEX
  VSB - VISIBILITY
$$



USA.gov is the U.S. government's official web portal to all federal, state and local government web resources and services.